"Pseudo-MPEC" for P10IcE0

Created 2018 Jul 12 16:18:09 UT using Find_Orb

Click here for an explanation of pseudo-MPECs

 
 Astrometry: 
     P10IcE0  C2018 07 08?VAstrometryUXBJ,YDg%!q_:Lj'usr;iu#m.Ff!D`%PsIr6)MaBF51
     P10IcE0  C2018 07 08lUI6\D/S=$Bl(5(!r)F2bP,fBoP]kv8:2N_u'VT$H6mIN!o`=yl)F51
     P10IcE0  C2018 07 08VhR,KD(=^nlwiM-CQ/3EeQH9,qJpl-[`2`*n$BJt,w'))7=(VHPpF51
     P10IcE0  C2018 07 08/Gp3q@xwd8d3-Of'5=bsSj(0lX!YPhQl/)jim(TZx;0By5^r68bUF51
     P10IcE0 KC2018 07 09Q(0dXy;JbxnQFP+(jredacted;FBj6[bLM%jO4u1D`iCUm_T7Fv)291
     P10IcE0 KC2018 07 09wq)s;?T#k'\60p1A;qd8'Xx[Ni[Ne;Wbfa6'D_rLAb\8sX-EByLT291
     P10IcE0 KC2018 07 09Q-(@BW`7h$O8+0]D(cfjyX=W?brhTJO7DqH*c6-gfELP\q2E7VEI291
     P10IcE0 KC2018 07 10sVB6V:$ed./YJmB`/\V\-h\xD[Gr7C.n]fYt[eT_XvEY`3v\o)%+H21
     P10IcE0 KC2018 07 10'#f(u$K)LbJ_dD@ORYbO$A5^.1uWncO#O1y-6\Yx,c+8l]qT2PO!H21
     P10IcE0 KC2018 07 104]fco4cX=A-NtodVN==mZH+L_W[L-dMuseen_q(OC6Nq+m(Z0E'jH21
     P10IcE0 KC2018 07 12Gfp,w+X^p`ZrTsi6OrjM.?DnfL(PK/@LOjYMvk1lQE_r-PH%@ug9474
     P10IcE0 KC2018 07 12?5%F=UKOx0@W]pHHTnZmfgC4FcgW]#7)tFTUvRepcH@fp\tg+)es474
     P10IcE0 KC2018 07 12))]J:t'Q#x1WNBD[DdG:Fu3cE(k(1(R%ZWY6/EG]ci[D3yF'EA:a474
     P10IcE0 KC2018 07 12^2`fXBQ:NW=bhPxwuE4^ho]Un]7mX+.=rH]PDijra[B83?3NEOCP474

Station data:
(291) LPL/Spacewatch II  (N31.961669 W111.599905)  US/Arizona.  Observers J.
   V. Scotti, R. S. McMillan. 1.8-m f/2.7 reflector + CCD.
(474) Mount John Observatory, Lake Tekapo  (S43.987388 E170.464960)  New
   Zealand.  Observers A. C. Gilmore, P. M. Kilmartin. Measurer P. M.
   Kilmartin. 1.0-m f/7.7 reflector + CCD.
(F51) Pan-STARRS 1, Haleakala  (N20.707235 W156.255910)  US/Hawaii.
   Observers N. Primak, A. Schultz, S. Watters, J. Thiel, T. Goggia. Measurer
   PS1 Science Consortium. 1.8-m Ritchey-Chrétien + CCD.
(H21) Astronomical Research Observatory, Westfield  (N39.483057 W87.968270)
   US/Illinois. 0.76-m f/3.0 astrograph + CCD.

Orbital elements:  P10IcE0
   Perihelion 2018 Aug 20.056278 +/- 0.44 TT =  1:21:02 (JD 2458350.556278)
Epoch 2018 Jul 12.0 TT = JDT 2458311.5   Earth MOID: 0.2816   Ma: 0.0631
M 339.16039 +/- 0.18                (J2000 ecliptic)          AutoNEOCP
n   0.53357893 +/- 0.0038           Peri.   23.12512 +/- 0.30
a   1.50546361 +/- 0.00715          Node   300.69302 +/- 0.032
e   0.1450490 +/- 0.00269           Incl.   18.58759 +/- 0.17
P   1.85/674.68d           H 21.6   G  0.15   U  9.0  
q 1.28709752 +/- 0.00209    Q 1.72382971 +/- 0.0123
From 14 observations 2018 July 8-12; mean residual 0".20
Residuals in arcseconds: 
180708 F51  .05-  .19-    180709 291  .44+  .30+    180712 474  .26+  .07+    
180708 F51  .06-  .10-    180709 291  .05-  .11+    180712 474  .09-  .08-    
180708 F51  .14-  .05-    180710 H21  .17-  .18-    180712 474  .02-  .08+    
180708 F51  .04-  .11-    180710 H21  .12-  .34-    180712 474  .08-  .03+    
180709 291  .24+  .58+    180710 H21  .16-  .17-    

Ephemerides (geocentric):
Date (UTC) HH   RA              Dec         delta   r     elong  mag " sig PA
---- -- -- --  -------------   -----------  ------ ------ -----  --- ---- ---
2018 07 12 16  21 29 31.084   -20 47 46.35  .31910 1.3057 151.4 20.8  .15  21
2018 07 12 17  21 29 27.194   -20 45 49.00  .31894 1.3057 151.5 20.8  .16  23
2018 07 12 18  21 29 23.295   -20 43 51.54  .31879 1.3057 151.5 20.8  .18  24
2018 07 12 19  21 29 19.390   -20 41 53.98  .31864 1.3056 151.6 20.8  .20  25
2018 07 12 20  21 29 15.476   -20 39 56.31  .31849 1.3056 151.6 20.8  .22  26
2018 07 12 21  21 29 11.554   -20 37 58.54  .31834 1.3055 151.7 20.8  .24  27
2018 07 12 22  21 29 07.625   -20 36 00.66  .31819 1.3055 151.7 20.8  .26  28
2018 07 12 23  21 29 03.688   -20 34 02.68  .31804 1.3055 151.8 20.8  .28  28
2018 07 13 00  21 28 59.743   -20 32 04.59  .31789 1.3054 151.8 20.8  .30  29
2018 07 13 01  21 28 55.791   -20 30 06.40  .31774 1.3054 151.8 20.8  .32  29
2018 07 13 02  21 28 51.831   -20 28 08.10  .31760 1.3053 151.9 20.8  .34  30
2018 07 13 03  21 28 47.863   -20 26 09.70  .31745 1.3053 151.9 20.8  .36  30
2018 07 13 04  21 28 43.887   -20 24 11.19  .31730 1.3053 152.0 20.8  .38  30
2018 07 13 05  21 28 39.903   -20 22 12.58  .31715 1.3052 152.0 20.8  .40  31
2018 07 13 06  21 28 35.912   -20 20 13.87  .31700 1.3052 152.1 20.8  .43  31
2018 07 13 07  21 28 31.913   -20 18 15.05  .31686 1.3051 152.1 20.8  .45  31
2018 07 13 08  21 28 27.907   -20 16 16.13  .31671 1.3051 152.2 20.7  .47  31
2018 07 13 09  21 28 23.893   -20 14 17.10  .31656 1.3051 152.2 20.7  .49  32
2018 07 13 10  21 28 19.871   -20 12 17.97  .31642 1.3050 152.3 20.7  .52  32
2018 07 13 11  21 28 15.841   -20 10 18.74  .31627 1.3050 152.3 20.7  .54  32
2018 07 13 12  21 28 11.804   -20 08 19.40  .31612 1.3050 152.4 20.7  .57  32
2018 07 13 13  21 28 07.759   -20 06 19.96  .31598 1.3049 152.4 20.7  .59  32
2018 07 13 14  21 28 03.707   -20 04 20.42  .31583 1.3049 152.5 20.7  .62  32
2018 07 13 15  21 27 59.647   -20 02 20.77  .31569 1.3048 152.5 20.7  .64  33
2018 07 13 16  21 27 55.579   -20 00 21.02  .31554 1.3048 152.6 20.7  .67  33
2018 07 13 17  21 27 51.504   -19 58 21.16  .31540 1.3048 152.6 20.7  .69  33
2018 07 13 18  21 27 47.421   -19 56 21.20  .31526 1.3047 152.7 20.7  .72  33
2018 07 13 19  21 27 43.331   -19 54 21.14  .31511 1.3047 152.7 20.7  .75  33
2018 07 13 20  21 27 39.233   -19 52 20.98  .31497 1.3046 152.8 20.7  .77  33
2018 07 13 21  21 27 35.128   -19 50 20.71  .31483 1.3046 152.8 20.7  .80  33
2018 07 13 22  21 27 31.015   -19 48 20.35  .31468 1.3046 152.9 20.7  .83  33
2018 07 13 23  21 27 26.894   -19 46 19.87  .31454 1.3045 152.9 20.7  .86  33
2018 07 14 00  21 27 22.766   -19 44 19.30  .31440 1.3045 153.0 20.7  .88  33
2018 07 14 01  21 27 18.631   -19 42 18.62  .31426 1.3045 153.0 20.7  .91  33
2018 07 14 02  21 27 14.488   -19 40 17.85  .31411 1.3044 153.1 20.7  .94  33
2018 07 14 03  21 27 10.337   -19 38 16.97  .31397 1.3044 153.1 20.7  .97  33
2018 07 14 04  21 27 06.179   -19 36 15.99  .31383 1.3043 153.2 20.7  1.0  33
2018 07 14 05  21 27 02.014   -19 34 14.90  .31369 1.3043 153.2 20.7  1.0  34
2018 07 14 06  21 26 57.841   -19 32 13.72  .31355 1.3043 153.3 20.7  1.1  34
2018 07 14 07  21 26 53.661   -19 30 12.43  .31341 1.3042 153.3 20.7  1.1  34
2018 07 14 08  21 26 49.474   -19 28 11.04  .31327 1.3042 153.4 20.7  1.1  34
2018 07 14 09  21 26 45.279   -19 26 09.55  .31313 1.3041 153.4 20.7  1.2  34
2018 07 14 10  21 26 41.076   -19 24 07.96  .31299 1.3041 153.5 20.7  1.2  34
2018 07 14 11  21 26 36.866   -19 22 06.27  .31285 1.3041 153.5 20.7  1.2  34
2018 07 14 12  21 26 32.649   -19 20 04.48  .31271 1.3040 153.6 20.7  1.3  34
2018 07 14 13  21 26 28.425   -19 18 02.58  .31257 1.3040 153.6 20.7  1.3  34
2018 07 14 14  21 26 24.193   -19 16 00.59  .31244 1.3040 153.7 20.7  1.3  34
2018 07 14 15  21 26 19.954   -19 13 58.50  .31230 1.3039 153.7 20.7  1.4  34